Sign-in with your pilot id or email, or register

ICAO: RPLL Name / Country: Manila International Airport / Philippines
Latitude: 14.505 Longitude: 121.004
Total Arrivals:
Strict Standards: Non-static method AirportData::getarrflights() should not be called statically, assuming $this from incompatible context in /var/www/customers/vh-7192/web/home/phpvms/core/templates/airport_info.tpl on line 18
1
Total Departures:
Strict Standards: Non-static method AirportData::getdeptflights() should not be called statically, assuming $this from incompatible context in /var/www/customers/vh-7192/web/home/phpvms/core/templates/airport_info.tpl on line 21
2
Latest Arrival: MTA5PM (YPDN-RPLL) Tibor Berces Latest Departure: MTA5PM (RPLL-VHHH) Tibor Berces
Metar: RPLL 241500Z VRB02KT 9999 FEW025 27/24 Q1012 NOSIG RMK A2988
More info

Charts for RPLL


NOTAM


Warning: file_get_contents(http://api.vateud.net/notams/RPLL.json): failed to open stream: HTTP request failed! HTTP/1.1 404 Not Found in /var/www/customers/vh-7192/web/home/phpvms/core/common/NOTAMSData.class.php on line 18

Warning: Invalid argument supplied for foreach() in /var/www/customers/vh-7192/web/home/phpvms/core/common/NOTAMSData.class.php on line 22

Manila International Airport